Location: Newark
(30.0333°N, 31.2167°E)
Time: 01:00:00
(UTC+00:00)

Tiros 1 - Pass Details

Date: 01 February 2020
Orbit: 631 x 664 km, 48.4° (Epoch: 20 February)

Event Time Altitude Azimuth Distance (km) Brightness Sun altitude
Rises 14:05:25 0° 316° (NW) 2,961 10.7 16.0°
Reaches altitude 10° 14:07:48 10° 322° (NW) 2,054 9.9 15.6°
Maximum altitude 14:12:25 50° 38° (NE) 834 7.6 14.7°
Drops below altitude 10° 14:17:03 10° 114° (ESE) 2,065 9.4 13.9°
Sets 14:19:27 0° 119° (ESE) 2,978 10.3 13.4°
